ECHOSTAR 14

Last updated on Mon Oct 14 2024 00:02:38 GMT+0000 (Coordinated Universal Time)

1 36499U 10010A 24287.45442391 -.00000001 00000+0 00000+0 0 9998 2 36499 0.0148 232.3811 0002144 329.8680 224.9788 1.00271366 40418
UTC large
Height (km)
Speed (km/s)
/
Latitude / Longitude
Inclination (degrees)
Orbital Period (minutes)
Azimuth
Elevation
Range (km)
Doppler Factor

Next 0 passes for location: London (51.5072 / 0.1276)

Sorry there are no passes over London.